Location: Risskov
(56.1972°N, 10.2480°E)
Time: 23:52:11
(UTC+00:00)

Cosmos 1943 Rocket - Pass Details

Date: 05 July 2020
Orbit: 811 x 845 km, 71.0° (Epoch: 03 August)

Event Time Altitude Azimuth Distance (km) Brightness Sun altitude
Rises 22:51:00 0° 324° (NW) 3,418 6.6 -10.8°
Reaches altitude 10° 22:53:27 10° 325° (NW) 2,480 5.7 -10.9°
Maximum altitude 22:59:11 87° 237° (WSW) 854 2.2 -11.0°
Enters shadow 23:04:38 11° 149° (SSE) 2,379 4.0 -11.0°
